Regional Weather Roundup
Issued by NWS Sioux Falls, SD

Home | Current Version | Previous Version | Text Only | Print | Product List | Glossary On
Versions: 1 2 3 4 5 6 7 8 9 10 11 12 13 14 15 16 17 18 19 20 21 22 23 24 25 26 27 28 29 30 31 32 33 34 35 36 37 38 39 40 41 42 43 44 45 46 47 48 49 50
000
ASUS43 KFSD 231610
RWRFSD

WEATHER ROUNDUP FOR SE SOUTH DAKOTA/SW MINNESOTA/NW IOWA
NATIONAL WEATHER SERVICE SIOUX FALLS SD
1100 AM CDT SAT SEP 23 2017

NOTE: "FAIR" INDICATES FEW OR NO CLOUDS BELOW 12,000 FEET WITH NO
SIGNIFICANT WEATHER AND OR OBSTRUCTIONS TO VISIBILITY.


SDZ038>040-050-052>070-231700-
SOUTHEAST SOUTH DAKOTA

CITY           SKY/WX    TMP DP  RH WIND       PRES   REMARKS
BROOKINGS      CLOUDY    63  58  83 N8        29.99R
CHAMBERLAIN    LGT RAIN  54  54 100 NW7       30.02S
HURON          RAIN      54  53  97 N10       30.02R FOG
MADISON        CLOUDY    66  66 100 CALM      29.99R
MITCHELL       CLOUDY    56  55  97 NW8       30.01S
SIOUX FALLS    CLOUDY    69  66  90 SE6       29.97S
WINNER         CLOUDY    52  50  93 N10       30.02S
YANKTON        CLOUDY    62  57  83 E3        29.97S
$$

MNZ071-072-080-081-089-090-097-098-231700-
SOUTHWEST MINNESOTA

CITY           SKY/WX    TMP DP  RH WIND       PRES   REMARKS
FAIRMONT       SUNNY     80  69  69 SW9       30.00R
JACKSON        CLOUDY    77  66  69 CALM      30.00S
LUVERNE        CLOUDY    66  59  77 NE5       29.99R
MARSHALL       CLOUDY    65  58  78 CALM      29.99S
MONTEVIDEO     CLOUDY    64  63  94 N6        30.00R
PIPESTONE      MOSUNNY   70  63  78 SE10      29.98R
REDWOOD FALLS  CLOUDY    72  62  71 S9        29.97S
TRACY          CLOUDY    67  61  81 SE6       29.99S
WORTHINGTON    CLOUDY    67  62  84 E6        30.00S
$$

IAZ001>003-012>014-020>022-031-032-NEZ013-014-SDZ071-231700-
NORTHWEST IOWA

CITY           SKY/WX    TMP DP  RH WIND       PRES   REMARKS
CHEROKEE       SUNNY     80  71  74 S10       29.97S
DENISON        MOSUNNY   81  68  65 S12       30.00S
ESTHERVILLE    SUNNY     78  70  76 S12       29.99R
LE MARS        SUNNY     77  68  73 S13       29.95F
ORANGE CITY    MOSUNNY   77  70  78 S10       29.96F
SHELDON        MOSUNNY   77  68  73 VRB7      29.96S
SIOUX CITY     SUNNY     73  66  78 SE6       29.95F
SPENCER        MOSUNNY   80  69  69 S8        29.99R
STORM LAKE     SUNNY     82  68  61 SW15      29.99S
$$

ABBREVIATIONS USED IN REMARKS
   TC - TEMPERATURE IN CELSIUS
  WCI - WIND CHILL INDEX
   HX - HEAT INDEX
  VSB - VISIBILITY





USA.gov is the U.S. government's official web portal to all federal, state and local government web resources and services.